
SB KEPS @ AMSAT $ORB11181.N 2Line Orbital Elements 11181.AMSAT
HR AMSAT ORBITAL ELEMENTS FOR AMATEUR SATELLITES IN NASA FORMAT FROM WA5QGD FORT WORTH,TX June 30, 2011 Send Subscribe/unsubscribe to KEPS at http://www.amsat.org/mailman/listinfo/keps BID: ORB11181.N
DECODE 2-LINE ELSETS WITH THE FOLLOWING KEY: 1 AAAAAU 00 0 0 BBBBB.BBBBBBBB .CCCCCCCC 00000-0 00000-0 0 DDDZ 2 AAAAA EEE.EEEE FFF.FFFF GGGGGGG HHH.HHHH III.IIII JJ.JJJJJJJJKKKKKZ KEY: A-CATALOGNUM B-EPOCHTIME C-DECAY D-ELSETNUM E-INCLINATION F-RAAN G-ECCENTRICITY H-ARGPERIGEE I-MNANOM J-MNMOTION K-ORBITNUM Z-CHECKSUM
TO ALL RADIO AMATEURS BT
AO-07 1 07530U 74089B 11180.04716725 -.00000027 00000-0 10000-3 0 1150 2 07530 101.3913 186.1199 0011599 255.9795 103.9989 12.53582906675678 FO-29 1 24278U 96046B 11180.92255454 .00000005 00000-0 42884-4 0 06289 2 24278 098.5465 323.3324 0349886 224.0866 133.1884 13.52962946734186 SO-33 1 25509U 98061B 11180.39481272 .00000419 00000-0 72133-4 0 00010 2 25509 031.4330 175.2627 0353458 348.2821 010.9753 14.28425161662028 RS-22 1 27939U 03042A 11173.41873221 .00000223 00000-0 51478-4 0 3754 2 27939 097.8455 027.1667 0013195 334.0207 026.0333 14.63600221413108 VO-52 1 28650U 05017B 11180.78761517 .00000193 00000-0 30388-4 0 08344 2 28650 097.6413 223.3552 0028052 119.2063 241.1925 14.82098056332616 SO-67 1 35870U 09049F 11173.48427091 .00001238 00000-0 59151-4 0 9587 2 35870 097.2803 216.6678 0003077 038.6822 068.6193 15.20809288 97749 HO-68 1 36122U 09072B 11180.77997257 -.00000044 00000-0 00000-0 0 05104 2 36122 100.4149 241.4009 0007478 193.1444 166.9466 13.16286943073895 UO-11 1 14781U 84021B 11180.71429404 .00000033 00000-0 11389-4 0 05873 2 14781 098.0055 237.3859 0010139 096.1880 264.0484 14.79990904467640 AO-16 1 20439U 90005D 11180.87927047 .00000060 00000-0 37906-4 0 02366 2 20439 098.3847 130.0730 0011526 121.9063 238.3240 14.31926641119437 LO-19 1 20442U 90005G 11180.88690242 .00000075 00000-0 43278-4 0 1369 2 20442 098.3476 134.3836 0012812 117.3047 242.9440 14.32151968119619 AO-27 1 22825U 93061C 11180.89065492 -.00000013 00000-0 12030-4 0 08558 2 22825 098.5310 125.0834 0007712 234.5807 125.4676 14.29352594926008 IO-26 1 22826U 93061D 11180.95776374 .00000047 00000-0 35205-4 0 06209 2 22826 098.5252 125.6182 0007950 230.0201 130.0283 14.29615279926131 GO-32 1 25397U 98043D 11181.69166550 -.00000068 00000-0 -12203-4 0 5163 2 25397 098.3252 173.5308 0000578 183.8819 176.2345 14.23211706673889 NO-44 1 26931U 01043C 11180.70338959 -.00000106 00000-0 -92288-5 0 07883 2 26931 067.0533 311.2760 0006488 255.8731 104.1604 14.29665893508714 SO-50 1 27607U 02058C 11180.83989068 .00000038 00000-0 27841-4 0 05037 2 27607 064.5589 289.2262 0073788 318.5972 040.9565 14.71764757457958 CO-55 1 27844U 03031E 11180.57110169 .00000098 00000-0 65669-4 0 01426 2 27844 098.7046 189.0910 0009859 157.4224 202.7388 14.20820702414673 CO-57 1 27848U 03031J 11180.58686348 .00000078 00000-0 56634-4 0 00922 2 27848 098.7113 188.2988 0009825 161.3682 198.7847 14.20599126414625 AO-51 1 28375U 04025K 11180.47275479 .00000069 00000-0 33474-4 0 00083 2 28375 098.0986 158.2718 0085036 033.0985 327.5485 14.40764573367831 CP3 1 31129U 07012N 11180.75590083 .00000127 00000-0 39220-4 0 09062 2 31129 097.8980 204.2433 0103999 141.3111 219.5574 14.52505160222660 CO-65 1 32785U 08021C 11180.77133403 .00000426 00000-0 60166-4 0 00306 2 32785 097.8487 244.4246 0015806 132.2842 227.9675 14.82034030171404 PRISM 1 33493U 09002B 11173.49496518 .00000789 00000-0 10681-3 0 7016 2 33493 098.1259 302.1833 0020266 027.8899 332.3399 14.81742215130301 SOHLA-1 1 33496U 09002E 11180.85023781 -.00000000 00000-0 82687-5 0 04500 2 33496 098.0818 290.5547 0007683 083.8912 276.3161 14.69628887130344 TISAT-1 1 36799U 10035E 11173.47572888 .00000561 00000-0 80265-4 0 9756 2 36799 098.1013 241.7788 0013921 259.1897 100.7748 14.80586897 51090 STUDSAT 1 36801U 10035G 11180.78181260 .00001737 00000-0 23258-3 0 02333 2 36801 098.1052 249.0326 0012589 222.8106 137.2123 14.80717874052167 RAX 1 37223U 0 11152.36844328 .00000635 00000-0 96781-4 0 01738 2 37223 071.9713 073.6151 0021634 311.5989 048.3343 14.77415682028541 OOREOS 1 37224U 10062C 11153.29456974 .00000492 00000-0 77478-4 0 01796 2 37224 071.9726 071.8135 0020315 307.7637 052.1684 14.77036357028673 FO-69 1 37227U 0 11181.53936136 .00000244 00000-0 42900-4 0 00674 2 37227 071.9704 009.8266 0018584 257.3365 102.5733 14.76605354011294 NANOSALD 1 37361U 0 11174.52327160 .00072655 00000-0 53683-2 0 02502 2 37361 071.9550 019.4208 0044931 112.1569 248.4010 15.02018741023079 FO-70 1 37380U 0 11181.48738262 .00000197 00000-0 36296-4 0 02038 2 37380 071.9736 010.0653 0019150 254.7400 105.1644 14.76370961032829 NOAA-10 1 16969U 86073A 11173.53698638 .00000126 00000-0 69261-4 0 5405 2 16969 098.6184 203.2511 0011653 206.4589 153.6009 14.27466237288412 NOAA-11 1 19531U 88089A 11173.36268988 .00000217 00000-0 13478-3 0 5414 2 19531 098.7513 260.7287 0011439 169.5844 190.5598 14.14919201173483 NOAA-12 1 21263U 91032A 11173.49046337 .00000149 00000-0 81321-4 0 385 2 21263 098.7482 191.3266 0012517 167.0131 193.1372 14.25720235 45160 MET-3/5 1 21655U 91056A 11180.89664957 .00000051 00000-0 10000-3 0 01481 2 21655 082.5569 041.7960 0014411 121.5468 238.7106 13.17028608955395 MET-2/21 1 22782U 93055A 11173.46300070 .00000030 00000-0 13441-4 0 1280 2 22782 082.5493 318.6907 0024098 084.6065 275.7837 13.83659074899281 OKEAN-4 1 23317U 94066A 11173.89923597 .00000287 00000-0 32104-4 0 5904 2 23317 082.5399 007.8047 0023754 098.7134 261.6773 14.83090269901399 NOAA-14 1 23455U 94089A 11173.41415782 .00000036 00000-0 42147-4 0 5249 2 23455 098.8523 255.9981 0008563 266.4902 093.5292 14.13822841849810 NOAA-15 1 25338U 98030A 11173.50178069 .00000142 00000-0 79481-4 0 8595 2 25338 098.6540 159.5703 0011684 078.2342 282.0161 14.24925286681481 RESURS 1 25394U 98043A 11173.51690311 -.00000031 00000-0 40045-5 0 8268 2 25394 098.2983 176.2453 0000729 169.9733 190.1462 14.24234854673060 FENGYUN1 1 25730U 99025A 11180.95664908 .00000889 00000-0 54081-3 0 03620 2 25730 098.8174 141.8709 0022517 281.0351 078.8289 14.08657464624866 OKEAN-0 1 25860U 99039A 11173.52532202 .00000112 00000-0 24495-4 0 3407 2 25860 097.8853 139.8233 0001272 039.3497 320.7804 14.73795459641446 NOAA-16 1 26536U 00055A 11173.53080197 -.00000243 00000-0 -10606-3 0 3416 2 26536 099.1387 204.1814 0010770 022.6949 337.4696 14.12624718554118 NOAA-17 1 27453U 02032A 11173.44507397 -.00000006 00000-0 15132-4 0 3302 2 27453 098.3779 212.9143 0012540 130.9044 229.3237 14.24283886467406 NOAA-18 1 28654U 05018A 11173.41655203 .00000452 00000-0 27376-3 0 8109 2 28654 098.9960 124.5763 0015252 089.6572 270.6335 14.11487098313666 NOAA-19 1 33591U 09005A 11173.41487868 -.00000071 00000-0 -15241-4 0 15 2 33591 098.8261 113.4816 0013798 325.6694 034.3582 14.11175692122124 HUBBLE 1 20580U 90037B 11180.74813243 .00000769 00000-0 45480-4 0 7891 2 20580 028.4727 294.4017 0003480 252.1362 107.8827 15.01409579961549 ISS 1 25544U 98067A 11182.05639476 -.00003910 00000-0 -39610-4 0 6314 2 25544 051.6422 090.7842 0007882 292.9233 206.8702 15.60874739723071 CO-58 1 28895U 05043F 11180.67453277 .00000091 00000-0 28229-4 0 09117 2 28895 097.9660 056.5812 0017788 178.2449 181.8826 14.60122839302065 FALCON 1 30776U 07006E 11173.55069084 .00001314 00000-0 94428-4 0 1123 2 30776 035.4349 314.3657 0000316 059.4625 300.6144 15.04692566235858 MAST 1 31126U 07012K 11173.54201737 .00000330 00000-0 84221-4 0 1905 2 31126 097.8945 200.4658 0095185 153.4065 207.2049 14.53760317221864 CAPE1 1 31130U 07012P 11180.62918386 .00000206 00000-0 57460-4 0 02124 2 31130 097.8983 203.9015 0102980 142.2882 218.5572 14.52411290222444 COMPASS 1 32787U 08021E 11180.76519384 .00000740 00000-0 98557-4 0 00251 2 32787 097.8474 244.3485 0016455 132.7005 227.5546 14.82470036171428 AAUSAT2 1 32788U 08021F 11173.64105533 .00000901 00000-0 11820-3 0 96 2 32788 097.8470 237.5825 0015696 155.2374 204.9533 14.82645614170387 DO-64 1 32789U 08021G 11180.73282105 .00000931 00000-0 12039-3 0 00317 2 32789 097.8571 245.5721 0016271 130.8922 229.3709 14.83146593171449 CO-66 1 32791U 08021J 11180.71700236 .00000112 00000-0 20669-4 0 00206 2 32791 097.8476 244.2373 0016953 131.4383 228.8270 14.82151842171360 RS-30 1 32953U 08025A 11173.45977334 .00000010 00000-0 00000 0 0 8418 2 32953 082.5007 159.4452 0019749 019.7868 340.3973 12.43013814139745 TACSAT-3 1 35001U 09028A 11173.85916380 .00012546 00000-0 22589-3 0 6243 2 35001 040.4530 138.2964 0023122 255.4349 104.3906 15.49233901117966 PHARMSAT 1 35002U 09028B 11180.92021280 .00009739 00000-0 17790-3 0 05861 2 35002 040.4690 093.2204 0025650 311.4500 048.4073 15.48946266119083 HAWKSAT1 1 35003U 09028C 11181.85997355 .00049667 00000-0 43974-3 0 6723 2 35003 040.4593 056.3210 0020538 334.5175 025.4316 15.67447219119571 CP6 1 35004U 09028D 11180.92821697 .00099682 00000-0 62063-3 0 06728 2 35004 040.4524 052.4083 0021225 335.2459 024.7283 15.75497843119525 METEOR-M 1 35865U 09049A 11173.78103354 .00000176 00000-0 10000-3 0 4806 2 35865 098.7057 228.8375 0003339 026.8609 333.2689 14.21839888 91386 RS-38 1 35869U 09049E 11180.88703899 .00000177 00000-0 10000-3 0 04967 2 35869 098.7022 235.8860 0004889 006.3205 353.8024 14.22015250092400 /EX
participants (1)
-
Ray Hoad